AXM6355 WBKK-WBGG

Flight info

Callsign AXM6355
Flight time 1h 11m
Altitude 38000
Route DULIM2F DULIM M646 BRU G580 PILAX
Aircraft A20N/M-SDE2E3FGHIRWXY/LB1

Departure

Time 2026-04-29 13:06
Airport Kota Kinabalu International Airport (WBKK)

Arrival

Time 2026-04-29 14:17
Airport Kuching International Airport (WBGG)
Time Latitude Longitude Altitude Speed Heading
2026-04-29 12:43 5.92632 116.05054 29 ft 0 kts 113°
2026-04-29 12:55 5.92633 116.05052 28 ft 1 kts 113°
2026-04-29 12:55 5.92635 116.05047 28 ft 1 kts 113°
2026-04-29 12:55 5.92638 116.05040 28 ft 1 kts 113°
2026-04-29 12:55 5.92641 116.05033 28 ft 1 kts 113°
2026-04-29 12:56 5.92644 116.05026 28 ft 1 kts 113°
2026-04-29 12:56 5.92647 116.05019 28 ft 1 kts 113°
2026-04-29 12:56 5.92650 116.05012 28 ft 1 kts 119°
2026-04-29 12:56 5.92654 116.05005 28 ft 1 kts 129°
2026-04-29 12:57 5.92659 116.04999 28 ft 1 kts 140°
2026-04-29 12:57 5.92664 116.04995 28 ft 1 kts 154°
2026-04-29 12:57 5.92672 116.04991 28 ft 1 kts 169°
2026-04-29 12:57 5.92679 116.04990 28 ft 1 kts 184°
2026-04-29 12:58 5.92683 116.04990 28 ft 0 kts 192°
2026-04-29 13:00 5.92678 116.04989 28 ft 3 kts 193°
2026-04-29 13:00 5.92650 116.04978 51 ft 6 kts 203°
2026-04-29 13:00 5.92602 116.04957 28 ft 9 kts 202°
2026-04-29 13:01 5.92533 116.04929 28 ft 12 kts 202°
2026-04-29 13:01 5.92448 116.04894 28 ft 14 kts 202°
2026-04-29 13:01 5.92394 116.04840 29 ft 11 kts 270°
2026-04-29 13:01 5.92406 116.04767 28 ft 11 kts 252°
2026-04-29 13:02 5.92340 116.04721 28 ft 13 kts 201°
2026-04-29 13:02 5.92250 116.04687 28 ft 16 kts 200°
2026-04-29 13:02 5.92167 116.04651 28 ft 14 kts 211°
2026-04-29 13:02 5.92072 116.04606 28 ft 14 kts 202°
2026-04-29 13:03 5.91992 116.04573 28 ft 11 kts 202°
2026-04-29 13:03 5.91924 116.04546 28 ft 12 kts 202°
2026-04-29 13:03 5.91842 116.04510 28 ft 14 kts 204°
2026-04-29 13:03 5.91784 116.04455 28 ft 11 kts 270°
2026-04-29 13:04 5.91794 116.04418 28 ft 0 kts 294°
2026-04-29 13:04 5.91804 116.04395 28 ft 9 kts 294°
2026-04-29 13:05 5.91841 116.04339 28 ft 12 kts 324°
2026-04-29 13:05 5.91919 116.04355 28 ft 15 kts 22°
2026-04-29 13:05 5.92249 116.04496 28 ft 90 kts 23°
2026-04-29 13:05 5.93038 116.04823 60 ft 148 kts 23°
2026-04-29 13:06 5.93971 116.05250 707 ft 149 kts 27°
2026-04-29 13:06 5.94932 116.05679 1380 ft 152 kts 23°
2026-04-29 13:06 5.95915 116.06085 2081 ft 157 kts 22°
2026-04-29 13:06 5.96988 116.06527 2601 ft 176 kts 22°
2026-04-29 13:07 5.98180 116.07016 3073 ft 195 kts 23°
2026-04-29 13:07 5.99509 116.07561 3456 ft 220 kts 23°
2026-04-29 13:07 6.01000 116.08175 3849 ft 246 kts 23°
2026-04-29 13:07 6.02674 116.08862 3989 ft 268 kts 23°
2026-04-29 13:08 6.04197 116.09406 3991 ft 270 kts 11°
2026-04-29 13:08 6.06137 116.09307 3997 ft 272 kts 343°
2026-04-29 13:08 6.07690 116.08401 4001 ft 276 kts 317°
2026-04-29 13:08 6.08872 116.06881 4000 ft 277 kts 301°
2026-04-29 13:09 6.09475 116.05056 4005 ft 279 kts 274°
2026-04-29 13:09 6.09189 116.03147 4004 ft 279 kts 246°
2026-04-29 13:09 6.08105 116.01543 4002 ft 279 kts 227°
2026-04-29 13:09 6.06809 116.00095 4008 ft 280 kts 227°
2026-04-29 13:10 6.05577 115.98725 4331 ft 281 kts 227°
2026-04-29 13:10 6.04521 115.97543 5004 ft 280 kts 227°
2026-04-29 13:10 6.03105 115.96218 6030 ft 278 kts 215°
2026-04-29 13:10 6.01531 115.95056 6857 ft 283 kts 214°
2026-04-29 13:11 5.99921 115.93884 7642 ft 289 kts 214°
2026-04-29 13:11 5.98277 115.92689 8433 ft 294 kts 214°
2026-04-29 13:11 5.96611 115.91475 9234 ft 299 kts 215°
2026-04-29 13:11 5.94914 115.90233 10007 ft 303 kts 215°
2026-04-29 13:12 5.93175 115.88959 10476 ft 320 kts 215°
2026-04-29 13:12 5.91312 115.87595 10687 ft 343 kts 215°
2026-04-29 13:12 5.89342 115.86151 11087 ft 356 kts 215°
2026-04-29 13:12 5.87470 115.84778 11747 ft 359 kts 215°
2026-04-29 13:13 5.85619 115.83419 12388 ft 363 kts 215°
2026-04-29 13:13 5.83564 115.81912 13090 ft 367 kts 215°
2026-04-29 13:13 5.81488 115.80390 13761 ft 372 kts 215°
2026-04-29 13:13 5.79391 115.78853 14389 ft 375 kts 215°
2026-04-29 13:14 5.77276 115.77302 15000 ft 378 kts 215°
2026-04-29 13:14 5.75139 115.75736 15609 ft 382 kts 215°
2026-04-29 13:14 5.73009 115.74176 16181 ft 386 kts 215°
2026-04-29 13:14 5.70802 115.72559 16759 ft 390 kts 214°
2026-04-29 13:15 5.68600 115.70947 17333 ft 393 kts 214°
2026-04-29 13:15 5.67101 115.69849 17706 ft 396 kts 214°
2026-04-29 13:15 5.65098 115.68382 18207 ft 398 kts 214°
2026-04-29 13:15 5.63376 115.67121 18579 ft 401 kts 214°
2026-04-29 13:16 5.61472 115.65728 18992 ft 403 kts 214°
2026-04-29 13:16 5.59361 115.64182 19449 ft 406 kts 214°
2026-04-29 13:16 5.57542 115.62851 19831 ft 408 kts 214°
2026-04-29 13:16 5.55160 115.61108 20322 ft 411 kts 214°
2026-04-29 13:17 5.52836 115.59408 20802 ft 414 kts 214°
2026-04-29 13:17 5.50560 115.57743 21268 ft 417 kts 214°
2026-04-29 13:17 5.48403 115.56165 21690 ft 420 kts 214°
2026-04-29 13:17 5.46262 115.54580 22110 ft 424 kts 217°
2026-04-29 13:18 5.44358 115.52898 22504 ft 427 kts 223°
2026-04-29 13:18 5.42543 115.50913 22908 ft 431 kts 227°
2026-04-29 13:18 5.40744 115.48856 23322 ft 434 kts 227°
2026-04-29 13:18 5.38745 115.46582 23718 ft 437 kts 227°
2026-04-29 13:19 5.36729 115.44297 24116 ft 439 kts 227°
2026-04-29 13:19 5.34698 115.41996 24492 ft 441 kts 227°
2026-04-29 13:19 5.32657 115.39686 24869 ft 443 kts 227°
2026-04-29 13:19 5.30983 115.37790 25179 ft 445 kts 227°
2026-04-29 13:20 5.29747 115.36391 25395 ft 446 kts 227°
2026-04-29 13:20 5.28076 115.34498 25686 ft 448 kts 227°
2026-04-29 13:20 5.26003 115.32151 26039 ft 450 kts 227°
2026-04-29 13:20 5.23967 115.29845 26377 ft 453 kts 227°
2026-04-29 13:21 5.22235 115.27884 26658 ft 454 kts 227°
2026-04-29 13:21 5.20343 115.25742 26956 ft 456 kts 227°
2026-04-29 13:21 5.18228 115.23348 27293 ft 458 kts 227°
2026-04-29 13:21 5.16363 115.21237 27574 ft 460 kts 227°
2026-04-29 13:22 5.14235 115.18829 27889 ft 462 kts 227°
2026-04-29 13:22 5.12096 115.16408 28196 ft 464 kts 227°
2026-04-29 13:22 5.09948 115.13977 28487 ft 467 kts 227°
2026-04-29 13:22 5.07791 115.11537 28799 ft 468 kts 227°
2026-04-29 13:23 5.05625 115.09087 29095 ft 470 kts 227°
2026-04-29 13:23 5.03841 115.07069 29344 ft 472 kts 227°
2026-04-29 13:23 5.01660 115.04602 29625 ft 474 kts 227°
2026-04-29 13:23 4.99472 115.02127 29912 ft 476 kts 227°
2026-04-29 13:24 4.97269 114.99636 30173 ft 478 kts 227°
2026-04-29 13:24 4.95063 114.97142 30436 ft 479 kts 227°
2026-04-29 13:24 4.93597 114.95484 30604 ft 480 kts 227°
2026-04-29 13:24 4.91378 114.92976 30858 ft 482 kts 227°
2026-04-29 13:25 4.89154 114.90461 31154 ft 482 kts 227°
2026-04-29 13:25 4.85237 114.85022 31866 ft 481 kts 237°
2026-04-29 13:25 4.83800 114.82722 32149 ft 481 kts 237°
2026-04-29 13:26 4.82042 114.79921 32481 ft 480 kts 237°
2026-04-29 13:26 4.80265 114.77097 32839 ft 478 kts 237°
2026-04-29 13:26 4.78493 114.74282 33182 ft 477 kts 237°
2026-04-29 13:26 4.76721 114.71469 33502 ft 476 kts 237°
2026-04-29 13:27 4.74951 114.68658 33820 ft 476 kts 237°
2026-04-29 13:27 4.73188 114.65859 34085 ft 475 kts 237°
2026-04-29 13:27 4.71430 114.63066 34363 ft 474 kts 237°
2026-04-29 13:27 4.69672 114.60274 34631 ft 473 kts 237°
2026-04-29 13:28 4.67919 114.57490 34883 ft 472 kts 237°
2026-04-29 13:28 4.66499 114.55235 35088 ft 471 kts 237°
2026-04-29 13:28 4.64907 114.52705 35318 ft 471 kts 237°
2026-04-29 13:28 4.63162 114.49935 35570 ft 470 kts 237°
2026-04-29 13:29 4.61439 114.47200 35808 ft 469 kts 237°
2026-04-29 13:29 4.59675 114.44399 36068 ft 468 kts 237°
2026-04-29 13:29 4.57938 114.41642 36323 ft 468 kts 237°
2026-04-29 13:29 4.56203 114.38887 36568 ft 467 kts 237°
2026-04-29 13:30 4.54474 114.36145 36813 ft 466 kts 237°
2026-04-29 13:30 4.52767 114.33436 37043 ft 466 kts 237°
2026-04-29 13:30 4.50673 114.30113 37302 ft 465 kts 237°
2026-04-29 13:31 4.49374 114.28052 37476 ft 464 kts 237°
2026-04-29 13:31 4.47789 114.25538 37675 ft 464 kts 237°
2026-04-29 13:31 4.46433 114.23387 37845 ft 463 kts 236°
2026-04-29 13:31 4.44705 114.20647 37891 ft 463 kts 236°
2026-04-29 13:32 4.41572 114.15678 37887 ft 462 kts 236°
2026-04-29 13:32 4.38745 114.11197 37884 ft 462 kts 236°
2026-04-29 13:33 4.35652 114.06293 37882 ft 462 kts 236°
2026-04-29 13:33 4.32560 114.01392 37885 ft 462 kts 236°
2026-04-29 13:34 4.29576 113.96831 37884 ft 461 kts 232°
2026-04-29 13:34 4.26192 113.92356 37879 ft 461 kts 231°
2026-04-29 13:35 4.22334 113.87233 37879 ft 461 kts 232°
2026-04-29 13:35 4.18473 113.82104 37881 ft 461 kts 232°
2026-04-29 13:36 4.14615 113.76981 37885 ft 461 kts 232°
2026-04-29 13:36 4.11077 113.72284 37886 ft 461 kts 232°
2026-04-29 13:37 4.07266 113.67228 37884 ft 461 kts 232°
2026-04-29 13:37 4.03528 113.62268 37882 ft 461 kts 232°
2026-04-29 13:38 3.99666 113.57144 37881 ft 461 kts 232°
2026-04-29 13:38 3.95796 113.52011 37887 ft 462 kts 232°
2026-04-29 13:39 3.91952 113.46913 37888 ft 462 kts 232°
2026-04-29 13:39 3.88077 113.41775 37889 ft 462 kts 232°
2026-04-29 13:40 3.84202 113.36638 37892 ft 463 kts 232°
2026-04-29 13:40 3.80790 113.32115 37893 ft 463 kts 232°
2026-04-29 13:41 3.77242 113.27413 37893 ft 463 kts 232°
2026-04-29 13:41 3.73452 113.22391 37900 ft 463 kts 232°
2026-04-29 13:42 3.69572 113.17251 37891 ft 463 kts 232°
2026-04-29 13:42 3.66091 113.12639 37892 ft 463 kts 232°
2026-04-29 13:43 3.62290 113.07606 37890 ft 463 kts 232°
2026-04-29 13:43 3.58749 113.02917 37883 ft 463 kts 232°
2026-04-29 13:44 3.54866 112.97774 37881 ft 463 kts 232°
2026-04-29 13:44 3.50983 112.92634 37880 ft 463 kts 231°
2026-04-29 13:45 3.47097 112.87490 37877 ft 463 kts 231°
2026-04-29 13:45 3.43224 112.82348 37872 ft 463 kts 233°
2026-04-29 13:46 3.39579 112.77028 37866 ft 463 kts 235°
2026-04-29 13:46 3.35975 112.71682 37866 ft 463 kts 234°
2026-04-29 13:47 3.32343 112.66362 37867 ft 463 kts 234°
2026-04-29 13:47 3.29019 112.61513 37862 ft 463 kts 234°
2026-04-29 13:48 3.25370 112.56194 37865 ft 463 kts 234°
2026-04-29 13:48 3.21747 112.50912 37866 ft 463 kts 234°
2026-04-29 13:49 3.18226 112.45780 37867 ft 463 kts 234°
2026-04-29 13:49 3.14739 112.40697 37869 ft 463 kts 234°
2026-04-29 13:50 3.11094 112.35384 37872 ft 463 kts 234°
2026-04-29 13:50 3.08770 112.31997 37874 ft 463 kts 234°
2026-04-29 13:51 3.05293 112.26932 37826 ft 464 kts 234°
2026-04-29 13:51 3.03466 112.24269 37577 ft 464 kts 234°
2026-04-29 13:51 3.01642 112.21613 37323 ft 463 kts 234°
2026-04-29 13:52 2.99817 112.18954 37067 ft 464 kts 234°
2026-04-29 13:52 2.97982 112.16282 36817 ft 466 kts 234°
2026-04-29 13:52 2.96148 112.13610 36570 ft 467 kts 234°
2026-04-29 13:52 2.94307 112.10929 36334 ft 467 kts 234°
2026-04-29 13:53 2.92466 112.08248 36087 ft 468 kts 234°
2026-04-29 13:53 2.90621 112.05561 35841 ft 469 kts 234°
2026-04-29 13:53 2.88679 112.02943 35611 ft 469 kts 228°
2026-04-29 13:53 2.86638 112.00653 35391 ft 470 kts 226°
2026-04-29 13:54 2.84456 111.98232 35160 ft 471 kts 226°
2026-04-29 13:54 2.82263 111.95787 34924 ft 471 kts 226°
2026-04-29 13:54 2.80071 111.93341 34694 ft 472 kts 227°
2026-04-29 13:54 2.77876 111.90891 34468 ft 473 kts 226°
2026-04-29 13:55 2.75679 111.88439 34240 ft 474 kts 226°
2026-04-29 13:55 2.73676 111.86205 34039 ft 475 kts 226°
2026-04-29 13:55 2.71466 111.83740 33806 ft 476 kts 226°
2026-04-29 13:55 2.69258 111.81277 33548 ft 476 kts 226°
2026-04-29 13:56 2.67141 111.78916 33301 ft 477 kts 226°
2026-04-29 13:56 2.65390 111.76964 33000 ft 478 kts 226°
2026-04-29 13:56 2.63297 111.74629 32355 ft 481 kts 226°
2026-04-29 13:56 2.61056 111.72131 31424 ft 486 kts 226°
2026-04-29 13:57 2.58819 111.69638 30608 ft 489 kts 226°
2026-04-29 13:57 2.56564 111.67122 30043 ft 483 kts 226°
2026-04-29 13:57 2.54325 111.64625 29387 ft 479 kts 226°
2026-04-29 13:57 2.52111 111.62157 28763 ft 474 kts 226°
2026-04-29 13:58 2.49921 111.59716 28161 ft 469 kts 226°
2026-04-29 13:58 2.47751 111.57298 27551 ft 465 kts 226°
2026-04-29 13:58 2.45603 111.54905 26945 ft 461 kts 226°
2026-04-29 13:58 2.43468 111.52525 26294 ft 458 kts 226°
2026-04-29 13:59 2.41354 111.50170 25714 ft 454 kts 226°
2026-04-29 13:59 2.39287 111.47866 25160 ft 451 kts 226°
2026-04-29 13:59 2.37456 111.45826 24620 ft 449 kts 226°
2026-04-29 13:59 2.35550 111.43703 24057 ft 448 kts 226°
2026-04-29 14:00 2.33544 111.41468 23477 ft 446 kts 226°
2026-04-29 14:00 2.31919 111.39658 23005 ft 442 kts 226°
2026-04-29 14:00 2.30212 111.37753 22501 ft 439 kts 227°
2026-04-29 14:00 2.28367 111.35690 21967 ft 435 kts 227°
2026-04-29 14:01 2.26693 111.33814 21471 ft 431 kts 227°
2026-04-29 14:01 2.24996 111.31912 20962 ft 428 kts 227°
2026-04-29 14:01 2.23098 111.29787 20388 ft 425 kts 227°
2026-04-29 14:01 2.21490 111.27985 19921 ft 422 kts 227°
2026-04-29 14:02 2.19648 111.25924 19463 ft 417 kts 227°
2026-04-29 14:02 2.17896 111.23962 19024 ft 412 kts 227°
2026-04-29 14:02 2.16265 111.22136 18604 ft 408 kts 226°
2026-04-29 14:02 2.14313 111.19951 18098 ft 404 kts 226°
2026-04-29 14:03 2.12600 111.18035 17589 ft 400 kts 226°
2026-04-29 14:03 2.10753 111.15968 17039 ft 396 kts 226°
2026-04-29 14:03 2.08928 111.13926 16499 ft 393 kts 226°
2026-04-29 14:03 2.07143 111.11929 15980 ft 389 kts 227°
2026-04-29 14:04 2.05463 111.10051 15509 ft 386 kts 227°
2026-04-29 14:04 2.03855 111.08252 15026 ft 384 kts 227°
2026-04-29 14:04 2.02323 111.06538 14589 ft 381 kts 227°
2026-04-29 14:04 2.00489 111.04486 14074 ft 379 kts 227°
2026-04-29 14:05 1.98737 111.02527 13572 ft 376 kts 227°
2026-04-29 14:05 1.97002 111.00586 13018 ft 374 kts 227°
2026-04-29 14:05 1.95275 110.98654 12472 ft 371 kts 227°
2026-04-29 14:05 1.93560 110.96736 11938 ft 369 kts 227°
2026-04-29 14:06 1.91858 110.94832 11416 ft 367 kts 227°
2026-04-29 14:06 1.90356 110.93152 10955 ft 365 kts 227°
2026-04-29 14:06 1.89016 110.91653 10548 ft 363 kts 227°
2026-04-29 14:06 1.87347 110.89786 10049 ft 361 kts 227°
2026-04-29 14:07 1.85821 110.88079 9568 ft 359 kts 227°
2026-04-29 14:07 1.84348 110.86432 9084 ft 357 kts 227°
2026-04-29 14:07 1.82783 110.84682 8572 ft 355 kts 227°
2026-04-29 14:07 1.81145 110.82851 8034 ft 353 kts 227°
2026-04-29 14:08 1.79520 110.81034 7508 ft 350 kts 227°
2026-04-29 14:08 1.77899 110.79221 6996 ft 348 kts 227°
2026-04-29 14:08 1.76291 110.77423 6484 ft 346 kts 227°
2026-04-29 14:08 1.74694 110.75639 5962 ft 343 kts 227°
2026-04-29 14:09 1.73107 110.73865 5427 ft 341 kts 227°
2026-04-29 14:09 1.71759 110.72358 4983 ft 339 kts 227°
2026-04-29 14:09 1.70192 110.70607 4446 ft 336 kts 227°
2026-04-29 14:09 1.68643 110.68875 3913 ft 333 kts 228°
2026-04-29 14:10 1.67102 110.67153 3384 ft 331 kts 228°
2026-04-29 14:10 1.65580 110.65452 2966 ft 324 kts 228°
2026-04-29 14:10 1.64110 110.63809 2812 ft 309 kts 228°
2026-04-29 14:10 1.62823 110.62369 2784 ft 293 kts 228°
2026-04-29 14:11 1.61635 110.61039 2783 ft 277 kts 228°
2026-04-29 14:11 1.60608 110.59891 2784 ft 264 kts 228°
2026-04-29 14:11 1.59489 110.58639 2788 ft 269 kts 228°
2026-04-29 14:11 1.58249 110.57252 2790 ft 267 kts 228°
2026-04-29 14:12 1.57099 110.55797 2748 ft 266 kts 237°
2026-04-29 14:12 1.56227 110.54199 2655 ft 257 kts 245°
2026-04-29 14:12 1.55554 110.52597 2575 ft 247 kts 250°
2026-04-29 14:12 1.55009 110.51181 2494 ft 237 kts 248°
2026-04-29 14:13 1.54452 110.49776 2421 ft 227 kts 249°
2026-04-29 14:13 1.53934 110.48466 2335 ft 217 kts 249°
2026-04-29 14:13 1.53390 110.47085 2159 ft 212 kts 249°
2026-04-29 14:13 1.52857 110.45740 1913 ft 200 kts 249°
2026-04-29 14:14 1.52391 110.44561 1651 ft 185 kts 249°
2026-04-29 14:14 1.52010 110.43598 1456 ft 172 kts 249°
2026-04-29 14:14 1.51606 110.42572 1253 ft 155 kts 250°
2026-04-29 14:14 1.51229 110.41620 1057 ft 140 kts 249°
2026-04-29 14:15 1.50956 110.40930 938 ft 137 kts 249°
2026-04-29 14:15 1.50590 110.40002 772 ft 138 kts 249°
2026-04-29 14:15 1.50302 110.39275 636 ft 137 kts 249°
2026-04-29 14:15 1.49989 110.38481 470 ft 137 kts 249°
2026-04-29 14:16 1.49640 110.37596 281 ft 137 kts 249°
2026-04-29 14:16 1.49280 110.36659 57 ft 144 kts 248°
2026-04-29 14:16 1.48961 110.35857 60 ft 97 kts 248°
2026-04-29 14:16 1.48774 110.35387 67 ft 69 kts 249°
2026-04-29 14:17 1.48663 110.35110 75 ft 25 kts 248°
2026-04-29 14:17 1.48607 110.34960 73 ft 19 kts 252°
2026-04-29 14:17 1.48603 110.34829 72 ft 19 kts 280°
2026-04-29 14:17 1.48623 110.34721 75 ft 18 kts 278°
2026-04-29 14:18 1.48634 110.34620 69 ft 12 kts 285°
2026-04-29 14:18 1.48689 110.34562 72 ft 12 kts 302°
2026-04-29 14:18 1.48677 110.34492 75 ft 9 kts 248°
2026-04-29 14:18 1.48652 110.34426 77 ft 9 kts 249°
2026-04-29 14:19 1.48629 110.34369 70 ft 7 kts 248°
2026-04-29 14:19 1.48639 110.34330 70 ft 4 kts 348°
2026-04-29 14:19 1.48675 110.34321 77 ft 4 kts 339°
2026-04-29 14:19 1.48690 110.34316 69 ft 0 kts 339°
2026-04-29 14:20 1.48693 110.34314 70 ft 0 kts 340°